TimeCDT,TemperatureF,Dew PointF,Humidity,Sea Level PressureIn,VisibilityMPH,Wind Direction,Wind SpeedMPH,Gust SpeedMPH,PrecipitationIn,Events,Conditions,WindDirDegrees,DateUTC
12:15 AM,28.4,26.6,93,29.97,4.0,NNW,11.5,-,N/A,,Overcast,340,2013-03-25 05:15:00
12:35 AM,28.4,26.6,93,29.97,3.0,NNW,10.4,-,N/A,,Overcast,340,2013-03-25 05:35:00
12:55 AM,28.4,26.6,93,29.97,3.0,NNW,10.4,-,N/A,,Overcast,340,2013-03-25 05:55:00
1:15 AM,28.4,26.6,93,29.97,3.0,NNW,13.8,-,N/A,,Overcast,340,2013-03-25 06:15:00
1:35 AM,28.4,26.6,93,29.97,3.0,NNW,10.4,-,N/A,,Overcast,340,2013-03-25 06:35:00
1:55 AM,28.4,24.8,86,29.97,3.0,NNW,9.2,-,N/A,,Overcast,340,2013-03-25 06:55:00
2:15 AM,28.4,24.8,86,29.97,3.0,NNW,9.2,-,N/A,,Overcast,340,2013-03-25 07:15:00
2:35 AM,28.4,26.6,93,29.97,4.0,NNW,11.5,-,N/A,,Overcast,330,2013-03-25 07:35:00
2:55 AM,28.4,26.6,93,29.97,4.0,NNW,10.4,-,N/A,,Overcast,330,2013-03-25 07:55:00
3:15 AM,28.4,26.6,93,29.97,5.0,NNW,10.4,-,N/A,,Overcast,330,2013-03-25 08:15:00
3:35 AM,28.4,26.6,93,29.97,7.0,NNW,13.8,18.4,N/A,,Overcast,330,2013-03-25 08:35:00
3:55 AM,28.4,26.6,93,29.97,7.0,NNW,13.8,18.4,N/A,,Overcast,340,2013-03-25 08:55:00
4:15 AM,28.4,26.6,93,29.97,10.0,NNW,11.5,18.4,N/A,,Overcast,330,2013-03-25 09:15:00
4:35 AM,28.4,26.6,93,29.97,5.0,NNW,11.5,-,N/A,,Overcast,330,2013-03-25 09:35:00
4:55 AM,28.4,24.8,86,29.97,5.0,NNW,12.7,-,N/A,,Overcast,330,2013-03-25 09:55:00
5:15 AM,28.4,24.8,86,29.97,7.0,NNW,15.0,18.4,N/A,,Overcast,330,2013-03-25 10:15:00
5:35 AM,28.4,24.8,86,29.98,10.0,NNW,12.7,-,N/A,,Overcast,330,2013-03-25 10:35:00
5:55 AM,28.4,24.8,86,29.99,10.0,NW,12.7,-,N/A,,Overcast,320,2013-03-25 10:55:00
6:15 AM,28.4,24.8,86,29.99,10.0,NNW,13.8,19.6,N/A,,Mostly Cloudy,330,2013-03-25 11:15:00
6:35 AM,28.4,24.8,86,30.00,10.0,NNW,11.5,16.1,N/A,,Mostly Cloudy,340,2013-03-25 11:35:00
6:55 AM,28.4,24.8,86,30.00,10.0,NNW,10.4,-,N/A,,Overcast,330,2013-03-25 11:55:00
7:15 AM,28.4,24.8,86,30.01,10.0,NNW,11.5,-,N/A,,Overcast,330,2013-03-25 12:15:00
7:35 AM,28.4,24.8,86,30.02,10.0,NW,11.5,-,N/A,,Overcast,320,2013-03-25 12:35:00
7:55 AM,28.4,24.8,86,30.03,10.0,NNW,16.1,21.9,N/A,,Overcast,330,2013-03-25 12:55:00
8:15 AM,28.4,24.8,86,30.03,10.0,NNW,15.0,18.4,N/A,,Overcast,330,2013-03-25 13:15:00
8:35 AM,28.4,23.0,80,30.04,10.0,NNW,17.3,23.0,N/A,,Overcast,330,2013-03-25 13:35:00
8:55 AM,28.4,21.2,74,30.05,10.0,NNW,19.6,29.9,N/A,,Overcast,340,2013-03-25 13:55:00
9:15 AM,28.4,19.4,69,30.06,10.0,North,12.7,24.2,N/A,,Overcast,350,2013-03-25 14:15:00
9:35 AM,28.4,17.6,64,30.06,10.0,North,17.3,23.0,N/A,,Mostly Cloudy,350,2013-03-25 14:35:00
9:55 AM,28.4,19.4,69,30.07,10.0,North,11.5,21.9,N/A,,Clear,350,2013-03-25 14:55:00
10:15 AM,30.2,21.2,69,30.08,10.0,NNW,15.0,18.4,N/A,,Mostly Cloudy,340,2013-03-25 15:15:00
10:35 AM,30.2,19.4,64,30.09,10.0,North,15.0,25.3,N/A,,Mostly Cloudy,350,2013-03-25 15:35:00
10:55 AM,30.2,19.4,64,30.09,10.0,NNW,15.0,-,N/A,,Mostly Cloudy,340,2013-03-25 15:55:00
11:15 AM,30.2,19.4,64,30.10,10.0,North,17.3,-,N/A,,Mostly Cloudy,350,2013-03-25 16:15:00
11:35 AM,30.2,19.4,64,30.11,10.0,NNW,18.4,23.0,N/A,,Scattered Clouds,340,2013-03-25 16:35:00
11:55 AM,30.2,21.2,69,30.11,10.0,NNW,17.3,23.0,N/A,,Scattered Clouds,340,2013-03-25 16:55:00
12:15 PM,32.0,19.4,60,30.11,10.0,North,16.1,23.0,N/A,,Scattered Clouds,350,2013-03-25 17:15:00
12:35 PM,32.0,21.2,64,30.11,10.0,North,18.4,-,N/A,,Clear,360,2013-03-25 17:35:00
12:55 PM,32.0,19.4,60,30.11,10.0,NNW,20.7,-,N/A,,Clear,340,2013-03-25 17:55:00
1:15 PM,33.8,21.2,60,30.11,10.0,North,18.4,-,N/A,,Clear,350,2013-03-25 18:15:00
1:35 PM,33.8,21.2,60,30.12,10.0,NNW,16.1,23.0,N/A,,Clear,340,2013-03-25 18:35:00
1:55 PM,33.8,21.2,60,30.12,10.0,North,17.3,24.2,N/A,,Clear,350,2013-03-25 18:55:00
2:15 PM,33.8,21.2,60,30.12,10.0,NNW,18.4,23.0,N/A,,Clear,340,2013-03-25 19:15:00
2:35 PM,35.6,21.2,56,30.12,10.0,North,15.0,24.2,N/A,,Clear,350,2013-03-25 19:35:00
2:55 PM,35.6,19.4,52,30.12,10.0,North,15.0,20.7,N/A,,Clear,350,2013-03-25 19:55:00
3:15 PM,35.6,21.2,56,30.12,10.0,NW,12.7,-,N/A,,Scattered Clouds,320,2013-03-25 20:15:00
3:35 PM,35.6,21.2,56,30.13,10.0,NNW,16.1,23.0,N/A,,Mostly Cloudy,330,2013-03-25 20:35:00
3:55 PM,35.6,21.2,56,30.13,10.0,North,17.3,23.0,N/A,,Mostly Cloudy,350,2013-03-25 20:55:00
4:15 PM,35.6,21.2,56,30.14,10.0,NNW,18.4,-,N/A,,Mostly Cloudy,340,2013-03-25 21:15:00
4:35 PM,35.6,21.2,56,30.14,10.0,NNW,15.0,21.9,N/A,,Mostly Cloudy,330,2013-03-25 21:35:00
4:55 PM,35.6,21.2,56,30.15,10.0,NNW,17.3,23.0,N/A,,Mostly Cloudy,340,2013-03-25 21:55:00
5:15 PM,35.6,21.2,56,30.15,10.0,North,16.1,21.9,N/A,,Mostly Cloudy,350,2013-03-25 22:15:00
5:35 PM,35.6,21.2,56,30.15,10.0,NW,15.0,25.3,N/A,,Mostly Cloudy,320,2013-03-25 22:35:00
5:55 PM,35.6,19.4,52,30.16,10.0,NNW,15.0,21.9,N/A,,Overcast,330,2013-03-25 22:55:00
6:15 PM,35.6,21.2,56,30.17,10.0,NNW,13.8,20.7,N/A,,Overcast,340,2013-03-25 23:15:00
6:35 PM,35.6,21.2,56,30.18,10.0,NNW,12.7,-,N/A,,Overcast,330,2013-03-25 23:35:00
6:55 PM,35.6,21.2,56,30.19,10.0,NNW,15.0,18.4,N/A,,Mostly Cloudy,340,2013-03-25 23:55:00
7:15 PM,33.8,23.0,65,30.19,10.0,NW,12.7,18.4,N/A,,Mostly Cloudy,320,2013-03-26 00:15:00
7:35 PM,33.8,23.0,65,30.20,10.0,NW,10.4,17.3,N/A,,Mostly Cloudy,320,2013-03-26 00:35:00
7:55 PM,33.8,21.2,60,30.20,10.0,NNW,12.7,16.1,N/A,,Mostly Cloudy,330,2013-03-26 00:55:00
8:15 PM,33.8,21.2,60,30.20,10.0,NNW,8.1,-,N/A,,Scattered Clouds,330,2013-03-26 01:15:00
8:35 PM,33.8,21.2,60,30.21,10.0,NW,10.4,-,N/A,,Clear,320,2013-03-26 01:35:00
8:55 PM,32.0,21.2,64,30.21,10.0,NNW,9.2,-,N/A,,Clear,330,2013-03-26 01:55:00
9:15 PM,32.0,21.2,64,30.22,10.0,NW,10.4,-,N/A,,Scattered Clouds,320,2013-03-26 02:15:00
9:35 PM,32.0,23.0,69,30.22,10.0,NW,8.1,-,N/A,,Mostly Cloudy,320,2013-03-26 02:35:00
9:55 PM,33.8,23.0,65,30.22,10.0,NW,11.5,16.1,N/A,,Mostly Cloudy,320,2013-03-26 02:55:00
10:15 PM,33.8,23.0,65,30.23,10.0,NNW,11.5,-,N/A,,Overcast,330,2013-03-26 03:15:00
10:35 PM,32.0,23.0,69,30.23,10.0,NNW,9.2,-,N/A,,Overcast,330,2013-03-26 03:35:00
10:55 PM,32.0,23.0,69,30.24,10.0,NNW,8.1,-,N/A,,Scattered Clouds,330,2013-03-26 03:55:00
11:15 PM,30.2,21.2,69,30.24,10.0,NNW,10.4,-,N/A,,Clear,330,2013-03-26 04:15:00
11:35 PM,30.2,21.2,69,30.25,10.0,NNW,12.7,17.3,N/A,,Scattered Clouds,330,2013-03-26 04:35:00
11:55 PM,30.2,21.2,69,30.25,10.0,NNW,11.5,-,N/A,,Scattered Clouds,330,2013-03-26 04:55:00